Regional Weather Roundup
Issued by NWS

Home | Current Version | Previous Version | Graphics & Text | Print | Product List | Glossary On
Versions: 1 2 3 4 5 6 7 8 9 10 11 12 13 14 15 16 17 18 19 20 21 22 23 24 25 26 27 28 29 30 31 32 33 34 35 36 37 38 39 40 41 42 43 44 45 46 47 48 49 50
000
ASUS45 KCYS 271810
RWRWY

WYOMING REGIONAL WEATHER ROUNDUP
NATIONAL WEATHER SERVICE CHEYENNE WY
1100 AM MST FRI FEB 27 2015

NOTE:  "FAIR" INDICATES FEW OR NO CLOUDS BELOW 12,000 FEET
WITH NO SIGNIFICANT WEATHER AND/OR OBSTRUCTIONS TO VISIBILITY.

WYZ001-271900-
YELLOWSTONE NATIONAL PARK

CITY           SKY/WX    TMP DP  RH WIND       PRES   REMARKS
LK YELLOWSTONE   N/A      7  -1  70 VRB3      29.77S
6HR MIN TEMP:  -7; 6HR MAX TEMP:   7;

W YELLOWSTONE  NOT AVBL

$$
WYZ002>013-054>058-071-098>099-271900-
NORTHERN WYOMING

CITY           SKY/WX    TMP DP  RH WIND       PRES   REMARKS
JACKSON        LGT SNOW  14  10  85 CALM      29.81F
CODY           FAIR      12   7  79 E3        29.86S
GREYBULL       FAIR      21   4  47 SE10      29.95F WCI  10
6HR MIN TEMP:   8; 6HR MAX TEMP:  21;

WORLAND        FAIR      17   8  67 SW5       29.93F WCI  10
6HR MIN TEMP:   1; 6HR MAX TEMP:  17;

SHERIDAN       FAIR       7  -1  70 W3        29.95F
6HR MIN TEMP: -13; 6HR MAX TEMP:   7;

BUFFALO        FAIR      11   4  73 S5        29.87F WCI   3
6HR MIN TEMP:  -3; 6HR MAX TEMP:  11;

GILLETTE       FAIR      14   6  70 S24       29.95S WCI  -5
6HR MIN TEMP:   2; 6HR MAX TEMP:  14;

HULETT         FAIR      19   7  58 S13       29.99S WCI   7
NEWCASTLE      FAIR      18   5  57 S18G25    30.04F WCI   2

$$
WYZ014>020-022>026-101>103-271900-
CENTRAL WYOMING

CITY           SKY/WX    TMP DP  RH WIND       PRES   REMARKS
BIG PINEY      CLOUDY    15   6  67 E5        29.82F WCI   8
6HR MIN TEMP:   9; 6HR MAX TEMP:  15; 6HR PCP: TRACE;

PINEDALE       CLOUDY    12   5  73 NW5       29.82F WCI   4
DUBOIS         CLOUDY    14   7  73 SE10      29.72F WCI   1
LANDER         FAIR       6   3  87 S5        29.88S WCI  -3
6HR MIN TEMP:  -4; 6HR MAX TEMP:   8;

RIVERTON       CLOUDY     7   5  91 CALM      29.89F
6HR MIN TEMP:  -6; 6HR MAX TEMP:   7; 6HR PCP: TRACE;

CASPER         FAIR      15   7  70 SE6       29.89F WCI   6
6HR MIN TEMP:  -3; 6HR MAX TEMP:  15;

DOUGLAS        FAIR      15   6  67 SE22      29.95F WCI  -3
6HR MIN TEMP:   4; 6HR MAX TEMP:  15;


$$
WYZ021-027>030-104>119-271900-
SOUTHERN WYOMING

CITY           SKY/WX    TMP DP  RH WIND       PRES   REMARKS
EVANSTON       CLOUDY    20  14  77 S5        29.78S WCI  13
6HR MIN TEMP:  11; 6HR MAX TEMP:  21;

FORT BRIDGER   FLURRIES  18  13  83 SE6       29.83S WCI  10
ROCK SPRINGS   FAIR      17  10  74 VRB5      29.83S WCI  10
6HR MIN TEMP:   2; 6HR MAX TEMP:  17; 6HR PCP: TRACE;

DIXON          FAIR      20  11  68 CALM      29.87F
RAWLINS        FAIR      16   6  65 S7        29.82F WCI   6
6HR MIN TEMP:  -3; 6HR MAX TEMP:  16;

SARATOGA       FAIR      19   9  63 E3        29.82F
LARAMIE        FAIR      13   4  67 S8        29.78F WCI   2
6HR MIN TEMP:  -2; 6HR MAX TEMP:  13;

CHEYENNE       LGT SNOW   8   2  76 S18       29.91F WCI -11
6HR MIN TEMP:   2; 6HR MAX TEMP:   8; 6HR PCP: TRACE;

TORRINGTON     FLURRIES  19  10  68 SE21      30.05F WCI   3
6HR MIN TEMP:   6; 6HR MAX TEMP:  19; 6HR PCP: TRACE;

PINE BLUFFS    CLOUDY    14   7  73 S24G30    30.02F HAZE    WCI  -5

$$



USA.gov is the U.S. government's official web portal to all federal, state and local government web resources and services.